Inquirer Daily News

Weather

Get conditions and forecasts for any City, State, ZIP code or Country:  
Northeast Philadelphia, PA
on Thursday, January 24, 2013

Thursday
Previous Day Next Day
Daily Summary
 ActualAverage (KTTN)Record (KTTN)
Temperature
Mean Temperature °F 31°F  
Max Temperature 25°F 39°F 70°F (1967)
Min Temperature 15°F 23°F -1°F (1907)
Degree Days
Heating Degree Days 45 34  
Month to date heating degree days 815  
Since 1 July heating degree days 2710  
Cooling Degree Days 0 0  
Month to date cooling degree days 0  
Year to date cooling degree days 0  
Moisture
Dew Point 1°F   
Average Humidity 47    
Maximum Humidity 74    
Minimum Humidity 27    
Precipitation
Precipitation 0.00 in 0.11 in 1.87 in (1979)
Month to date precipitation 2.45  
Year to date precipitation 2.45  
Wind
Wind Speed 7 mph   
Max Wind Speed 18 mph   
Max Gust Speed 30 mph   
Visibility 10 miles   
Events     

Key: T is trace of precipitation, MM is missing value
Source: NWS Daily Summary
Time(EST)TemperatureDew PointHumidity Pressure Visibility Wind DirectionWind SpeedGust SpeedPrecipitationEvents Conditions
12:54 AM 15.1°F 8.1°F 74% 30.18 in 10.0 miles ENE 3.5 mph - N/A   Overcast
1:54 AM 15.1°F 6.1°F 68% 30.17 in 10.0 miles Calm Calm - N/A   Overcast
2:54 AM 15.1°F 7.0°F 70% 30.16 in 10.0 miles Calm Calm - N/A   Overcast
3:54 AM 16.0°F 3.0°F 57% 30.16 in 10.0 miles Calm Calm - N/A   Overcast
4:54 AM 16.0°F 5.0°F 62% 30.17 in 10.0 miles NE 3.5 mph - N/A   Overcast
5:54 AM 16.0°F 3.9°F 59% 30.19 in 10.0 miles North 4.6 mph - N/A   Overcast
6:54 AM 15.1°F 3.0°F 59% 30.21 in 10.0 miles North 8.1 mph - N/A   Overcast
7:54 AM 15.1°F 3.0°F 59% 30.23 in 10.0 miles North 8.1 mph - N/A   Partly Cloudy
8:54 AM 17.1°F 3.0°F 54% 30.25 in 10.0 miles North 9.2 mph - N/A   Clear
9:08 AM 17.6°F 1.4°F 49% 30.26 in 10.0 miles North 13.8 mph - N/A   Clear
9:54 AM 19.9°F 3.0°F 48% 30.29 in 10.0 miles North 13.8 mph - N/A   Clear
10:54 AM 21.9°F 1.0°F 40% 30.30 in 10.0 miles NW 13.8 mph 20.7 mph 0.00 in   Clear
11:54 AM 24.1°F -0.0°F 35% 30.30 in 10.0 miles NNW 17.3 mph 28.8 mph 0.00 in   Partly Cloudy
12:54 PM 24.1°F -0.0°F 35% 30.30 in 10.0 miles NNW 16.1 mph 26.5 mph N/A   Scattered Clouds
1:54 PM 25.0°F -2.9°F 30% 30.31 in 10.0 miles NW 18.4 mph 28.8 mph N/A   Scattered Clouds
2:54 PM 25.0°F -5.1°F 27% 30.33 in 10.0 miles NNW 18.4 mph 29.9 mph N/A   Partly Cloudy
3:54 PM 24.1°F -2.9°F 31% 30.36 in 10.0 miles NNW 18.4 mph 27.6 mph N/A   Clear
4:54 PM 23.0°F -4.0°F 31% 30.39 in 10.0 miles NNW 17.3 mph 26.5 mph N/A   Clear
5:54 PM 21.0°F -2.9°F 35% 30.42 in 10.0 miles NNW 9.2 mph 18.4 mph N/A   Clear
6:54 PM 18.0°F -0.9°F 44% 30.45 in 10.0 miles NNW 4.6 mph - N/A   Clear
7:54 PM 19.9°F -2.0°F 38% 30.46 in 10.0 miles NW 4.6 mph - N/A   Clear
8:54 PM 19.9°F -0.9°F 40% 30.46 in 10.0 miles NW 9.2 mph - N/A   Clear
9:54 PM 19.0°F -0.0°F 43% 30.46 in 10.0 miles NNW 8.1 mph - N/A   Clear
10:54 PM 19.0°F -0.9°F 42% 30.47 in 10.0 miles NW 6.9 mph - N/A   Clear
11:54 PM 18.0°F -2.9°F 40% 30.48 in 10.0 miles NW 9.2 mph - N/A   Clear
Astronomy
Sunrise:07:15 AM (EST) Moon Rise:03:09 PM (EST)
Sunset:05:09 PM (EST) Moon Set:05:10 AM (EST)
Moon Phase
Jan. 24 Jan. 26 Feb. 03 Feb. 10 Feb. 17

Copyright © 2014 The Weather Underground, Inc.